Location: Medlow Airstrip Trail, Medlow Bath NSW 2780, Australia
(33.6682°S, 150.3233°E)
Time: 09:09:19
(UTC+11:00)

Explorer 11/Cluster Stage 4 - Pass Details

Date: 26 September 2019
Orbit: 467 x 1259 km, 28.8° (Epoch: 17 October)

Event Time Altitude Azimuth Distance (km) Brightness Sun altitude
Rises 10:38:47 0° 275° (W) 3,042 9.4 53.3°
Reaches altitude 10° 10:41:02 10° 280° (W) 2,236 8.9 53.6°
Maximum altitude 10:46:11 49° 354° (N) 1,093 9.0 54.1°
Drops below altitude 10° 10:52:37 10° 67° (ENE) 2,784 10.0 54.7°
Sets 10:55:41 0° 71° (ENE) 3,860 10.5 55.0°
